Location: ??????
(30.5519°N, 47.7720°E)
Time: 17:36:39
(UTC+00:00)

CSL-04 Rocket - Pass Details

Date: 24 January 2021
Orbit: 806 x 860 km, 98.9° (Epoch: 02 March)

Event Time Altitude Azimuth Distance (km) Brightness Sun altitude
Rises 15:36:49 0° 150° (SSE) 3,342 6.6 -17.0°
Reaches altitude 10° 15:39:14 10° 144° (SE) 2,420 5.8 -17.5°
Maximum altitude 15:44:19 46° 72° (ENE) 1,115 3.9 -18.6°
Drops below altitude 10° 15:49:30 10° 1° (N) 2,466 6.0 -19.7°
Sets 15:51:58 0° 355° (N) 3,411 6.8 -20.2°
